#timestamp,LO_Frequency,Hit,StdDev 
1627887615.1,286046997.7,N
1627887616.0,286046997.7,N
1627887635.8,286046997.6,N
1627887655.7,286046995.3,N
1627887675.5,286046995.5,N
1627887695.3,286046994.5,N
1627887715.2,286046994.0,N
1627887735.0,286046994.4,N
1627887735.9,286046994.4,N
1627887755.8,286046992.4,N
1627887775.6,286046992.8,N
1627887795.4,286046993.2,N
1627887815.3,286046990.2,Y
1627887835.1,286046994.3,P
1627887855.9,286046992.3,P
1627887875.7,286046994.6,N
1627887895.5,286046991.7,Y
1627887915.4,286046996.6,P
1627887935.2,286046998.9,N
1627887955.0,286046997.1,N
1627887956.0,286046997.1,N
1627887975.8,286046995.6,Y
1627887995.6,286046999.2,P
1627888015.5,286046998.6,N
1627888035.3,286047000.7,N
1627888055.1,286046998.1,N
1627888075.9,286047000.1,N
1627888095.7,286047001.7,N
1627888115.6,286047004.2,N
1627888135.4,286047005.2,N
1627888155.2,286047008.5,Y
1627888175.1,286047008.4,P
1627888176.0,286047008.4,N
1627888195.8,286047008.2,N
1627888215.7,286047010.8,Y
1627888235.5,286047004.4,P
1627888255.3,286047004.2,P
1627888275.2,286047003.9,P
1627888295.0,286047001.4,N
1627888295.9,286047001.4,N
1627888315.8,286047002.4,N
1627888335.6,286046998.1,N
1627888355.4,286047001.0,N
1627888375.3,286047002.5,N
1627888395.1,286047003.9,N
1627888415.8,286047004.1,N
1627888435.7,286047001.8,N
1627888455.5,286047002.3,N
1627888475.4,286047000.5,N
1627888495.2,286047000.0,N
1627888515.0,286046998.1,N
1627888515.9,286046998.1,N
1627888535.8,286047000.4,N
1627888555.6,286047002.4,N
1627888575.4,286047001.7,N
1627888595.3,286047004.7,N
1627888615.1,286047005.6,N
1627888635.9,286047011.9,Y
1627888655.7,286047001.7,P
1627888675.5,286047005.6,P
1627888695.4,286047004.5,N
1627888715.2,286047006.4,Y
1627888735.0,286047005.6,P
1627888735.9,286047005.6,P
1627888755.8,286047007.3,P
1627888775.6,286047006.6,Y
1627888795.5,286047000.5,P
1627888815.3,286047001.0,N
1627888835.1,286047002.3,N
1627888855.9,286047002.0,N
1627888875.7,286047004.2,N
1627888895.5,286047005.9,Y
1627888915.4,286047001.7,P
1627888935.2,286047004.3,P
1627888955.1,286047001.6,N
1627888956.0,286047001.6,N
1627888975.8,286047002.4,N
1627888995.6,286047001.7,N
1627889015.5,286047005.8,Y
1627889035.3,286047001.9,P
1627889055.1,286046999.8,N
1627889075.9,286047000.3,N
1627889095.7,286047000.3,N
1627889115.6,286046999.4,N
1627889135.4,286046995.2,Y
1627889155.3,286046996.3,P
1627889175.1,286046996.8,N
1627889176.0,286046996.8,N
1627889195.8,286046997.6,N
1627889215.7,286046997.7,N
1627889235.5,286046997.6,N
1627889255.3,286046993.4,Y
1627889275.2,286046997.2,P
1627889295.0,286046999.2,P
1627889295.9,286046999.2,N
1627889315.8,286046999.0,N
1627889335.6,286046998.5,N
1627889355.4,286046997.2,Y
1627889375.3,286046998.3,P
1627889395.1,286046998.4,P
1627889415.8,286047000.0,N
1627889435.7,286047000.1,N
1627889455.5,286047000.7,N
1627889475.4,286047001.2,N
1627889495.2,286047002.2,N
1627889515.0,286047004.0,N
1627889515.9,286047004.0,N
1627889535.8,286047004.4,N
1627889555.6,286047002.1,N
1627889575.5,286047003.6,N
1627889595.3,286047001.3,N
1627889615.1,286047002.5,N
1627889635.9,286047001.9,N
1627889655.7,286047001.6,N
1627889675.5,286047004.4,N
1627889695.4,286047004.0,N
1627889715.2,286047002.5,N
1627889735.1,286047004.3,N
1627889736.0,286047004.3,N
1627889755.8,286047002.4,N
1627889775.6,286047004.4,N
1627889795.5,286046999.7,N
1627889815.3,286047001.6,N
1627889835.1,286047004.3,N
1627889855.9,286047002.3,N
1627889875.7,286047002.6,N
1627889895.6,286047002.6,N
1627889915.4,286047003.9,N
1627889935.2,286047004.2,N
1627889955.1,286047003.1,N
1627889956.0,286047003.1,N
1627889975.8,286047007.1,Y
1627889995.6,286047004.6,P
1627890015.5,286047006.5,P
1627890035.3,286047008.0,P
1627890055.2,286047007.9,Y
1627890075.9,286047003.5,P
1627890095.7,286047001.3,N
1627890115.6,286047002.5,N
1627890135.4,286047000.1,N
1627890155.2,286047001.2,N
1627890175.1,286047000.5,N
1627890176.0,286047000.5,N
1627890195.8,286047000.8,N
1627890215.7,286047000.4,N
1627890235.5,286047000.9,N
1627890255.3,286046998.6,N
1627890275.2,286047001.0,N
1627890295.0,286047001.2,N
1627890295.9,286047001.2,N
1627890315.8,286047001.0,N
1627890335.6,286047000.5,N
1627890355.4,286046999.8,N
1627890375.3,286047002.4,N
1627890395.1,286047000.4,N
1627890415.9,286047001.1,N
1627890435.7,286046998.4,N
1627890455.5,286046999.3,N
1627890475.4,286046998.5,N
1627890495.2,286046999.0,N
1627890515.0,286047000.8,N
1627890515.9,286047000.8,N
1627890535.8,286046998.1,N
1627890555.6,286046998.8,N
1627890575.5,286046998.9,N
1627890595.3,286046998.1,N
1627890615.1,286046998.1,N
1627890635.9,286046998.6,N
1627890655.7,286046998.5,N
1627890675.6,286046999.0,N
1627890695.4,286046998.3,N
1627890715.2,286047000.4,N
1627890735.1,286046999.7,N
1627890736.0,286046999.7,N
1627890755.8,286047002.0,N
1627890775.6,286046999.8,N
1627890795.5,286047002.0,N
1627890815.3,286047002.3,N
1627890835.2,286047002.8,N
1627890855.9,286047000.6,N
1627890875.7,286046999.7,N
1627890895.6,286047001.9,N
1627890915.4,286047000.7,N
1627890935.2,286046998.4,N
1627890955.1,286046996.5,N
1627890956.0,286046996.5,N
1627890975.8,286046997.7,N
1627890995.7,286046998.9,N
1627891015.5,286046998.4,N
1627891035.6,286047000.3,N
1627891055.4,286047001.0,N
1627891075.2,286047000.0,N
1627891095.1,286047002.1,N
1627891096.0,286047002.1,N
1627891115.8,286047001.4,N
1627891135.6,286047001.5,N
1627891155.5,286047003.0,N
1627891175.3,286047005.2,N
1627891195.2,286047007.6,Y
